This is the latest recevied weather packets stored in our database for station/object DC2ML-11. If no packets are shown the sender has not sent any weather packets the latest 1 day(s).
| Time | Temp. | Humidity | Pressure | Rain* | Wind** | Luminosity | Snow |
|---|---|---|---|---|---|---|---|
| 1778101005 | 15° C | 57% | 1012.5 hPa | - | - | - | - |
| 1778099205 | 15° C | 56% | 1012.4 hPa | - | - | - | - |
| 1778098305 | 15° C | 56% | 1012.3 hPa | - | - | - | - |
| 1778097405 | 15.56° C | 56% | 1012.2 hPa | - | - | - | - |
| 1778091104 | 15.56° C | 56% | 1011.1 hPa | - | - | - | - |
| 1778089304 | 15.56° C | 56% | 1010.8 hPa | - | - | - | - |
| 1778087504 | 15.56° C | 56% | 1010.6 hPa | - | - | - | - |
| 1778086604 | 15.56° C | 57% | 1010.5 hPa | - | - | - | - |
| 1778084804 | 16.11° C | 57% | 1010.3 hPa | - | - | - | - |
| 1778083904 | 16.11° C | 56% | 1010.2 hPa | - | - | - | - |
| 1778075803 | 16.67° C | 56% | 1009.8 hPa | - | - | - | - |
| 1778074903 | 16.67° C | 57% | 1009.8 hPa | - | - | - | - |
| 1778074003 | 16.67° C | 56% | 1009.7 hPa | - | - | - | - |
| 1778073103 | 16.67° C | 56% | 1009.5 hPa | - | - | - | - |
| 1778072203 | 16.67° C | 56% | 1009.6 hPa | - | - | - | - |
| 1778071303 | 16.67° C | 56% | 1009.5 hPa | - | - | - | - |
| 1778064102 | 17.78° C | 55% | 1009 hPa | - | - | - | - |
| 1778063202 | 17.78° C | 55% | 1008.9 hPa | - | - | - | - |
| 1778062301 | 18.33° C | 55% | 1008.7 hPa | - | - | - | - |
| 1778061401 | 16.67° C | 57% | 1008.5 hPa | - | - | - | - |
| 1778060501 | 17.78° C | 57% | 1008.4 hPa | - | - | - | - |
| 1778059601 | 17.78° C | 57% | 1008.3 hPa | - | - | - | - |
| 1778058701 | 17.78° C | 57% | 1008.1 hPa | - | - | - | - |
| 1778056016 | 18.33° C | 56% | 1007.7 hPa | - | - | - | - |
| 1778055116 | 18.89° C | 54% | 1007.6 hPa | - | - | - | - |
* Rain since midnight (hover to see other rain measurements)
** Current wind speed in m/s (hover to see current wind gust speed)